World > North America > United States > South Carolina > Hickory Grove

Hickory Grove, SC Hourly Weather Conditions

Feedback E-mail the Weather

Quick WX

Hickory Grove, SC Weather Maps

°F °C°F °C
Hickory Grove Weather Map
UTC Time: 12/1/2022, 13:03
Your Time:

Hickory Grove, SC Regional Weather

Expires:202212011300;;118743
ASUS42 KCAE 011210
RWRCAE
REGIONAL WEATHER ROUNDUP
NATIONAL WEATHER SERVICE COLUMBIA SC
700 AM EST THU DEC 01 2022

NOTE: "FAIR" INDICATES FEW OR NO CLOUDS BELOW 12,000 FEET WITH NO
SIGNIFICANT WEATHER AND/OR OBSTRUCTIONS TO VISIBILITY.

NOT ALL STATIONS ARE QUALITY CONTROLLED BY THE NATIONAL 
WEATHER SERVICE. USE DATA WITH CAUTION...ESPECIALLY 
DEWPOINT OBSERVATIONS.


SCZ001>059-115-116-135>137-GAZ040-063>065-077-011300-
...UPSTATE SOUTH CAROLINA...
  
CITY           SKY/WX    TMP DP  RH WIND       PRES   REMARKS
ANDERSON       CLEAR     29  23  78 CALM      30.37R                  
6HR MIN TEMP:  27; 6HR MAX TEMP:  41;                                

LIBERTY        CLEAR     25  24  96 MISG      30.35R                  
6HR MIN TEMP:  25; 6HR MAX TEMP:  33;                                

SPARTANBURG    PTCLDY    34  12  40 N3        30.36R                  
CLEMSON        CLEAR     32  23  69 CALM      30.37R                  
6HR MIN TEMP:  32; 6HR MAX TEMP:  42;                                

GREENVILLE     CLEAR     38  12  34 N14       30.36R WCI  30          
6HR MIN TEMP:  38; 6HR MAX TEMP:  42;                                

GREENWOOD      CLEAR     28  22  78 CALM      30.39R                  
6HR MIN TEMP:  26; 6HR MAX TEMP:  35;                                

GREER          CLEAR     38  10  31 N9G23     30.37R WCI  31          
6HR MIN TEMP:  35; 6HR MAX TEMP:  42;                                

ROCK HILL      PTCLDY    36  18  48 NE9       30.37R WCI  29          
6HR MIN TEMP:  30; 6HR MAX TEMP:  42;                                

LAURENS        CLEAR     36  16  44 N5        30.37R WCI  32          


...CENTRAL SOUTH CAROLINA...
  
CITY           SKY/WX    TMP DP  RH WIND       PRES   REMARKS
COLUMBIA APT   CLEAR     30  26  85 W3        30.39R                  
6HR MIN TEMP:  30; 6HR MAX TEMP:  47;                                

COLUMBIA OWENS CLEAR     32  28  85 CALM      30.41R                  
6HR MIN TEMP:  32; 6HR MAX TEMP:  47;                                

MCENTIRE ANGB  CLEAR     28  28  99 CALM      30.38R                  
6HR MIN TEMP:  27; 6HR MAX TEMP:  41;                                

ORANGEBURG     CLEAR     35  27  72 CALM      30.39R                  
6HR MIN TEMP:  35; 6HR MAX TEMP:  49;                                

SUMTER SHAW    CLEAR     36  23  59 CALM      30.38R                  
6HR MIN TEMP:  35; 6HR MAX TEMP:  45;                                

AIKEN          FAIR      29  27  93 CALM      30.39R                  
6HR MIN TEMP:  29; 6HR MAX TEMP:  43;                                

BARNWELL       FAIR      32  30  93 CALM      30.38R                  
MANNING        FAIR      32  28  86 CALM      30.39R                  
CAMDEN         FAIR      28  25  86 CALM      30.39R                  
LANCASTER      CLEAR     30  23  74 CALM      30.37R                  
WINNSBORO      CLEAR     32  21  64 CALM      30.38R                  


...EASTERN AND COASTAL SOUTH CAROLINA...
  
CITY           SKY/WX    TMP DP  RH WIND       PRES   REMARKS
MYRTLE BEACH   CLEAR     38  28  67 N5        30.39R WCI  34          
6HR MIN TEMP:  38; 6HR MAX TEMP:  52;                                

N MYRTLE BCH   CLEAR     37  28  70 CALM      30.37R                  
6HR MIN TEMP:  37; 6HR MAX TEMP:  52;                                

CONWAY         FAIR      32  30  93 CALM      30.38R                  
MARION         FAIR      36  25  64 N3        30.38R                  
HARTSVILLE     FAIR      28  23  80 CALM      30.37R                  
FLORENCE       CLEAR     35  24  64 N3        30.38R                  
6HR MIN TEMP:  33; 6HR MAX TEMP:  48;                                

DARLINGTON     CLEAR     26  24  92 N5        30.39R WCI  20          
6HR MIN TEMP:  26; 6HR MAX TEMP:  42;                                

CHARLESTON APT CLEAR     41  28  60 N7        30.37R                  
6HR MIN TEMP:  39; 6HR MAX TEMP:  52;                                

MOUNT PLEASANT FAIR      41  36  81 CALM      30.38R                  
WALTERBORO     CLEAR     32  30  93 CALM      30.40R                  
BEAUFORT       CLEAR     41  29  62 N7        30.38R                  
6HR MIN TEMP:  41; 6HR MAX TEMP:  53;                                

HILTON HEAD    CLEAR     48  30  49 NE14      30.38R                  


...EASTERN GEORGIA...
  
CITY           SKY/WX    TMP DP  RH WIND       PRES   REMARKS
AUGUSTA BUSH F CLEAR     29  28  96 CALM      30.40R                  
6HR MIN TEMP:  28; 6HR MAX TEMP:  43;                                

AUGUSTA DANIEL CLEAR     37  26  64 N9        30.39R WCI  30          
6HR MIN TEMP:  36; 6HR MAX TEMP:  46;                                

THOMSON        CLEAR     29  28  97 CALM      30.40R                  
6HR MIN TEMP:  29; 6HR MAX TEMP:  43; 6HR PCP:  0.01;                

WASHINGTON     FAIR      29  26  90 CALM      30.40R                  
6HR MIN TEMP:  28; 6HR MAX TEMP:  41;                                

CLAXTON        FAIR      36  35  96 CALM      30.39R                  
6HR MIN TEMP:  35; 6HR MAX TEMP:  49;                                

SYLVANIA       CLEAR     36  32  85 CALM      30.39R                  
6HR MIN TEMP:  34; 6HR MAX TEMP:  48;                                

STATESBORO     CLEAR     36  30  80 CALM      30.39R                  
6HR MIN TEMP:  36; 6HR MAX TEMP:  45;                                

SAVANNAH       CLEAR     42  31  64 N5        30.37R                  
6HR MIN TEMP:  42; 6HR MAX TEMP:  56;                                



...SOUTHERN NORTH CAROLINA...
  
CITY           SKY/WX    TMP DP  RH WIND       PRES   REMARKS
CHARLOTTE      PTCLDY    34  19  54 N8        30.37R WCI  27          
6HR MIN TEMP:  32; 6HR MAX TEMP:  41;                                

MONROE         PTCLDY    35  16  45 N7        30.36R WCI  29          
6HR MIN TEMP:  35; 6HR MAX TEMP:  44;                                

WADESBORO      PTCLDY    31  24  75 CALM      30.38R                  
6HR MIN TEMP:  28; 6HR MAX TEMP:  42;                                

ROCKINGHAM     CLEAR     37  19  47 N7        30.36S WCI  32          
6HR MIN TEMP:  37; 6HR MAX TEMP:  44;                                

RUTHERFORDTON  PTCLDY    34  14  44 N3        30.38R                  
ASHEVILLE      PTCLDY    29  15  56 N17G26    30.39S WCI  17          
6HR MIN TEMP:  29; 6HR MAX TEMP:  33;                                


$$
  

SKY/WX - Weather  TMP - Temperature  DP - Dew Point  RH - Humidity
WIND - Wind Direction/Speed PRES - Barometric Pressure VSB - Visibility
WCI - Wind Chill Index E13G22 Wind - East Wind 13 mph/Gusts of 22 mph

Trending Headlines

Trending Entertainment Headlines

Hickory Grove Radar Loop

Use the map search tool if you want to place a location marker on the radar map...

Hickory Grove Quick Facts

National Two Day Weather Forecast


E-mail the Hickory Grove Weather Forecast

Voice your opinion or tell us about page issues...